Regional Weather Roundup
Issued by NWS Charleston, SC

Current Version | Previous Version | Graphics & Text | Print | Product List | Glossary On
Versions: 1 2 3 4 5 6 7 8 9 10 11 12 13 14 15 16 17 18 19 20 21 22 23 24 25 26 27 28 29 30 31 32 33 34 35 36 37 38 39 40 41 42 43 44 45 46 47 48 49 50
000
ASUS42 KCHS 281428
RWRCHS

REGIONAL WEATHER ROUNDUP
NATIONAL WEATHER SERVICE CHARLESTON SC
1000 AM EDT THU APR 28 2016

NOTE: "FAIR" INDICATES FEW OR NO CLOUDS BELOW 12,000 FEET WITH NO
SIGNIFICANT WEATHER AND/OR OBSTRUCTIONS TO VISIBILITY.

NOT ALL STATIONS ARE QUALITY CONTROLLED. USE DATA WITH CAUTION...
ESPECIALLY DEWPOINT OBSERVATIONS.

SCZ027-030-031-034>040-042>050-281500-
...SOUTHEAST SOUTH CAROLINA...

CITY           SKY/WX    TMP DP  RH WIND       PRES   REMARKS
N CHARLESTON   LGT RAIN  73  67  81 W8        29.98R
WATERFRONT PRK   N/A     74  69  84 VRB2      29.95S
MOUNT PLEASANT FAIR      75  70  83 W6        29.98S
JOHNS ISLAND   FAIR      75  70  83 SW7       29.98R
PINOPOLIS        N/A     70  66  88 SW7       29.88F
MONCKS CORNER  PTSUNNY   66  63  88 CALM      29.97F FOG
SUMMERVILLE    FAIR      72  70  94 S3        29.98F
BEAUFORT MCAS  PTSUNNY   74  69  85 VRB3      29.98R
BEAUFORT ARPT  FAIR      75  68  78 SW7       29.98S
HILTON HEAD IS PTSUNNY   75  72  88 S6        29.99R
WALTERBORO     FAIR      75  72  88 SW3       29.98S
ALLENDALE      FAIR      77  68  73 VRB6      29.96S

...SOUTHERN MIDLANDS AND PEE DEE...

CITY           SKY/WX    TMP DP  RH WIND       PRES   REMARKS
GEORGETOWN     PTSUNNY   70  66  88 W3        29.99S
KINGSTREE      LGT RAIN  68  64  88 SW3       29.98S
ORANGEBURG     PTSUNNY   73  64  73 SW3       29.97S
BARNWELL       CLOUDY    79  70  73 S7        29.97S
AIKEN          CLOUDY    72  64  78 W6        30.00S
MANNING        NOT AVBL
COLUMBIA       PTSUNNY   75  64  68 SW7       29.95S
SUMTER         PTSUNNY   72  65  78 S9        29.94S
FLORENCE       PTSUNNY   72  65  78 SW9       29.96R
MYRTLE BEACH   RAIN      73  61  64 NW16G22   30.01R
N MYRTLE BEACH FAIR      73  67  81 SW14      29.96S

$$

GAZ063-065-086>088-099>101-113>116-118-119-134>141-150-281500-
...SOUTHEAST GEORGIA...

CITY           SKY/WX    TMP DP  RH WIND       PRES   REMARKS
SAVANNAH ARPT  FAIR      78  67  68 SW12      29.98S
HUNTER AAF     FAIR      77  70  79 SW7       29.96S
FORT STEWART   FAIR      77  68  74 S6        29.95F
STATESBORO     FAIR      82  74  77 W7        29.97S
SYLVANIA       FAIR      79  72  79 W5        29.98S
CLAXTON        FAIR      77  72  83 SW3       29.98R

...CSRA...CENTRAL AND FAR SOUTHEAST GEORGIA...

CITY           SKY/WX    TMP DP  RH WIND       PRES   REMARKS
THOMSON        FAIR      76  71  82 SW6       29.99F
AUGUSTA-BUSH   CLOUDY    74  67  78 SW5       29.95S
AUGUSTA-DANIEL CLOUDY    73  65  75 CALM      29.97S
SWAINSBORO     CLOUDY    73  70  88 W6        29.99R
VIDALIA        PTSUNNY   77  68  73 W7        29.99R
EASTMAN        CLOUDY    74  74 100 SW5       30.00R
HAZLEHURST     CLOUDY    74  74 100 SW6       29.98R
ALMA           CLOUDY    72  69  90 W7        29.99R
WAYCROSS       CLOUDY    75  70  86 SW8       30.00R
JESUP          FAIR      81  72  74 W8        29.99S
BAXLEY         CLOUDY    77  72  83 SW7       29.99R
BRUNSWICK      FAIR      82  66  57 SW10G16   30.00R
SAINT SIMONS   FAIR      74  67  78 SW8       29.98F

$$

SCZ027-028-034-036>038-045-046-048>050-GAZ119-141-281500-
...LAKE AND SUPPLEMENTAL COASTAL OBSERVATIONS...

STATION/POSITION TIME  TEMP    WIND        PRES    WAVE   SWELL
                       AIR SEA DIR/SP/G            HT/PER HT/PER/DIR
                 (UTC) (F)     (DEG/KT/KT) (MB)    (FT/S) (FT/S/D)
WINYAH BAY       NOT AVBL
LAKE MURRAY      1300   69     190/  4/  6 1013.9R
ACE BASIN NERRS  1300   72        CALM     1015.0S
FORT PULASKI     1400   75 71  220/  7/  9 1015.4R
SAPELO ISLAND    NOT AVBL

$$

ANZ835-935-AMZ111-154-330-350-352-354-370-450-454-472-281500-
...C-MAN AND BUOY OBSERVATIONS...

STATION/POSITION TIME  TEMP    WIND        PRES    WAVE   SWELL
                       AIR SEA DIR/SP/G            HT/PER HT/PER/DIR
                 (UTC) (F)     (DEG/KT/KT) (MB)    (FT/S) (FT/S/D)
BUOY 41004       1350   72 71  210/ 10/ 12 1014.9S   3/ 5   2/ 5
BUOY 41008       NOT AVBL
FOLLY BEACH CMAN 1400   71     210/ 10/ 11 1015.3F
CAPERS NEARSHORE 1408   70 69  220/  8/ 10 1014.9F
FRIPP NEARSHORE  1408   71 70  220/  4/  8 1014.9R


STATION/POSITION TIME  TEMP    WIND        PRES    WAVE   SWELL
                       AIR SEA DIR/SP/G            HT/PER HT/PER/DIR
                 (UTC) (F)     (DEG/KT/KT) (MB)    (FT/S) (FT/S/D)
5E ST. MARYS GA  1321      71                N/A     2/ 4
FRYING PAN BUOY  1400   72 69  200/ 10/ 12 1015.1R
BUOY 41025       1350   71 71  260/ 12/ 12 1014.8R   3/ 6   2/190/ 6
CAPE LOOKOUT NC  1400   73     210/  9/ 12 1014.5S
BUOY 41002       1350   71 71  180/  6/  6 1017.8F   2/11   2/ 30/11
BUOY 41010       1320   75 76  180/  6/  8 1016.9R
ST AUGUSTINE FL  1400   77 70  230/  9/ 12 1016.7R


$$



USA.gov is the U.S. government's official web portal to all federal, state and local government web resources and services.